1513864800.37,31014,6.69,73576.0,-6.79,-7.43,-7.31,0,*5A
1513864801.59,31015,6.69,73574.3,-6.81,-7.49,-7.31,0,*56
1513864802.84,31016,6.69,73572.5,-6.81,-7.61,-7.35,0,*5B
1513864804.1,31017,6.63,73564.8,-6.81,-7.57,-7.31,0,*5B
1513864805.35,31018,6.69,73570.0,-6.81,-7.43,-7.31,0,*51
1513864806.57,31019,6.69,73570.0,-6.79,-7.49,-7.23,0,*5E
1513864807.78,31020,6.69,73570.0,-6.81,-7.49,-7.23,0,*53
1513864809.02,31021,6.69,73566.0,-6.79,-7.49,-7.31,0,*56
1513864810.24,31022,6.69,73564.5,-6.81,-7.49,-7.31,0,*52
1513864811.53,31023,6.69,73566.3,-6.79,-7.57,-7.43,0,*5E
1513864812.78,31024,6.69,73566.5,-6.79,-7.61,-7.49,0,*56
1513864814.06,31025,6.69,73566.5,-6.79,-7.57,-7.31,0,*5D
1513864815.29,31026,6.63,73560.8,-6.81,-7.43,-7.23,0,*5F
1513864816.54,31027,6.69,73568.5,-6.79,-7.35,-7.19,0,*51
1513864817.77,31028,6.69,73574.3,-6.81,-7.19,-7.05,0,*5A
1513864819.01,31029,6.69,73562.8,-6.79,-7.19,-7.05,0,*5C
1513864820.22,31030,6.69,73562.5,-6.81,-7.23,-7.11,0,*5F
1513864821.44,31031,6.69,73564.0,-6.81,-7.35,-7.19,0,*51
1513864822.7,31032,6.69,73558.0,-6.79,-7.31,-7.11,0,*59
1513864823.95,31033,6.69,73562.8,-6.79,-7.35,-7.19,0,*54
1513864825.2,31034,6.69,73564.3,-6.79,-7.31,-7.19,0,*57
1513864826.45,31035,6.69,73564.8,-6.79,-7.31,-7.19,0,*56
1513864827.7,31036,6.69,73566.5,-6.79,-7.35,-7.23,0,*58
1513864828.96,31037,6.69,73566.0,-6.79,-7.31,-7.23,0,*5D
1513864830.21,31038,6.69,73568.3,-6.79,-7.35,-7.19,0,*5F
1513864831.48,31039,6.69,73568.3,-6.79,-7.35,-7.31,0,*54
1513864832.71,31040,6.69,73562.8,-6.77,-7.27,-7.19,0,*5D
1513864833.95,31041,6.69,73564.3,-6.77,-7.31,-7.27,0,*56
1513864835.18,31042,6.69,73568.3,-6.77,-7.27,-7.15,0,*53
1513864836.43,31043,6.69,73572.5,-6.79,-7.35,-7.23,0,*5A
1513864837.63,31044,6.69,73566.0,-6.81,-7.23,-7.19,0,*54
1513864838.91,31045,6.69,73570.3,-6.79,-7.43,-7.35,0,*5A
1513864840.16,31046,6.69,73568.3,-6.77,-7.31,-7.27,0,*51
1513864841.38,31047,6.69,73568.3,-6.77,-7.15,-7.05,0,*56
1513864842.61,31048,6.69,73570.5,-6.79,-7.23,-7.19,0,*5F
1513864843.81,31049,6.69,73566.3,-6.77,-7.19,-7.19,0,*59
1513864845.03,31050,6.69,73568.5,-6.77,-7.27,-7.15,0,*50
1513864846.29,31051,6.69,73572.3,-6.79,-7.35,-7.23,0,*59
1513864847.53,31052,6.69,73574.3,-6.77,-7.39,-7.27,0,*5C
1513864848.76,31053,6.69,73570.5,-6.77,-7.27,-7.19,0,*5F
1513864850.0,31054,6.69,73572.8,-6.77,-7.31,-7.31,0,*55
1513864851.23,31055,6.69,73572.5,-6.75,-7.15,-7.15,0,*56
1513864852.46,31056,6.69,73566.8,-6.77,-7.15,-7.01,0,*52
1513864853.68,31057,6.69,73560.8,-6.77,-7.27,-7.15,0,*57
1513864854.93,31058,6.63,73560.3,-6.77,-7.27,-7.27,0,*59
1513864856.17,31059,6.69,73566.3,-6.77,-7.31,-7.27,0,*5F
1513864857.42,31060,6.69,73564.3,-6.77,-7.39,-7.27,0,*5D
1513864858.67,31061,6.69,73568.3,-6.77,-7.31,-7.27,0,*54
1513864859.87,31062,6.69,73566.8,-6.77,-7.19,-7.15,0,*5C
1513864861.12,31063,6.69,73566.8,-6.75,-7.15,-7.05,0,*52
1513864862.37,31064,6.69,73562.3,-6.75,-7.27,-7.19,0,*59
1513864863.6,31065,6.69,73564.8,-6.75,-7.19,-7.15,0,*59
1513864864.8,31066,6.63,73566.3,-6.77,-7.19,-7.15,0,*58
1513864866.05,31067,6.69,73564.3,-6.77,-7.39,-7.27,0,*5A
1513864867.3,31068,6.69,73568.5,-6.75,-7.27,-7.19,0,*55
1513864868.55,31069,6.69,73566.8,-6.75,-7.31,-7.19,0,*53
1513864869.83,31070,6.69,73572.5,-6.75,-7.43,-7.31,0,*54
1513864871.05,31071,6.69,73566.8,-6.77,-7.53,-7.31,0,*56
1513864872.3,31072,6.69,73570.8,-6.75,-7.53,-7.31,0,*57
1513864873.55,31073,6.69,73570.3,-6.77,-7.27,-7.27,0,*50
1513864874.79,31074,6.69,73564.3,-6.77,-7.39,-7.31,0,*5F
1513864876.04,31075,6.69,73564.3,-6.77,-7.39,-7.31,0,*5E
1513864877.28,31076,6.69,73570.0,-6.77,-7.39,-7.31,0,*5D
1513864878.53,31077,6.69,73574.8,-6.77,-7.43,-7.31,0,*51
1513864879.82,31078,6.69,73566.0,-6.75,-7.57,-7.43,0,*5C
1513864881.1,31079,6.69,73560.3,-6.75,-7.43,-7.43,0,*58
1513864882.35,31080,6.69,73560.8,-6.75,-7.53,-7.43,0,*5F
1513864883.61,31081,6.69,73560.0,-6.77,-7.57,-7.43,0,*58
1513864884.84,31082,6.69,73566.3,-6.77,-7.53,-7.43,0,*5F
1513864886.12,31083,6.69,73564.5,-6.75,-7.43,-7.43,0,*5D
1513864887.4,31084,6.69,73566.5,-6.75,-7.43,-7.43,0,*5A
1513864888.66,31085,6.63,73564.0,-6.77,-7.57,-7.43,0,*5C
1513864889.92,31086,6.69,73562.5,-6.75,-7.53,-7.43,0,*59
1513864891.14,31087,6.69,73568.0,-6.77,-7.43,-7.53,0,*5A
1513864892.42,31088,6.69,73564.0,-6.75,-7.43,-7.43,0,*56
1513864893.64,31089,6.69,73562.3,-6.77,-7.53,-7.39,0,*59
1513864894.93,31090,6.69,73564.5,-6.79,-7.57,-7.43,0,*56
1513864896.15,31091,6.69,73566.3,-6.77,-7.53,-7.43,0,*5D
1513864897.4,31092,6.69,73562.0,-6.77,-7.43,-7.39,0,*52
1513864898.6,31093,6.69,73564.8,-6.77,-7.53,-7.53,0,*5E
1513864899.85,31094,6.69,73570.8,-6.75,-7.53,-7.43,0,*5A
1513864901.13,31095,6.69,73568.8,-6.75,-7.57,-7.57,0,*5A
1513864902.39,31096,6.63,73568.5,-6.75,-7.53,-7.43,0,*58
1513864903.61,31097,6.69,73572.5,-6.77,-7.53,-7.31,0,*5E
1513864904.87,31098,6.69,73564.3,-6.77,-7.57,-7.57,0,*55
1513864906.15,31099,6.63,73554.0,-6.75,-7.43,-7.43,0,*56
1513864907.38,31100,6.69,73552.0,-6.77,-7.53,-7.43,0,*54
1513864908.63,31101,6.63,73544.5,-6.77,-7.57,-7.57,0,*54
1513864909.92,31102,6.69,73564.8,-6.75,-7.57,-7.43,0,*50
1513864911.17,31103,6.69,73560.0,-6.77,-7.57,-7.57,0,*56
1513864912.46,31104,6.69,73556.0,-6.75,-7.57,-7.57,0,*53
1513864913.68,31105,6.69,73556.0,-6.77,-7.61,-7.53,0,*51
1513864914.93,31106,6.69,73560.8,-6.77,-7.61,-7.61,0,*53
1513864916.19,31107,6.69,73564.5,-6.77,-7.61,-7.43,0,*52
1513864917.45,31108,6.69,73566.8,-6.77,-7.57,-7.43,0,*58
1513864918.67,31109,6.69,73566.3,-6.77,-7.53,-7.43,0,*5D
1513864919.9,31110,6.69,73564.3,-6.77,-7.53,-7.43,0,*55
1513864921.16,31111,6.69,73566.3,-6.77,-7.57,-7.43,0,*50
1513864922.41,31112,6.69,73568.5,-6.77,-7.43,-7.39,0,*5B
1513864923.69,31113,6.63,73568.5,-6.75,-7.57,-7.43,0,*50
1513864924.92,31114,6.69,73566.3,-6.77,-7.53,-7.43,0,*51
1513864926.21,31115,6.69,73564.3,-6.75,-7.57,-7.43,0,*56
1513864927.49,31116,6.69,73560.8,-6.75,-7.43,-7.43,0,*50
1513864928.74,31117,6.69,73560.3,-6.75,-7.53,-7.39,0,*5D
1513864930.0,31118,6.63,73556.3,-6.77,-7.57,-7.43,0,*59
1513864931.26,31119,6.63,73564.3,-6.77,-7.57,-7.43,0,*58
1513864932.51,31120,6.69,73574.3,-6.77,-7.57,-7.43,0,*52
1513864933.77,31121,6.69,73564.8,-6.77,-7.57,-7.39,0,*5E
1513864934.96,31122,6.69,73562.3,-6.77,-7.53,-7.53,0,*55
1513864936.22,31123,6.69,73564.0,-6.75,-7.53,-7.43,0,*57
1513864937.5,31124,6.69,73564.3,-6.75,-7.57,-7.43,0,*54
1513864938.73,31125,6.69,73570.0,-6.77,-7.53,-7.43,0,*53
1513864939.96,31126,6.69,73568.0,-6.77,-7.53,-7.43,0,*50
1513864941.21,31127,6.69,73568.0,-6.75,-7.57,-7.53,0,*56
1513864942.49,31128,6.69,73564.0,-6.75,-7.57,-7.57,0,*5D
1513864943.74,31129,6.69,73566.5,-6.75,-7.57,-7.53,0,*58
1513864944.97,31130,6.69,73560.5,-6.77,-7.57,-7.53,0,*52
1513864946.19,31131,6.69,73568.5,-6.77,-7.53,-7.39,0,*5B
1513864947.45,31132,6.69,73562.3,-6.77,-7.57,-7.57,0,*54
1513864948.7,31133,6.69,73562.3,-6.75,-7.57,-7.53,0,*53
1513864949.92,31134,6.69,73566.5,-6.75,-7.53,-7.53,0,*50
1513864951.16,31135,6.69,73558.0,-6.77,-7.39,-7.31,0,*5B
1513864952.39,31136,6.69,73556.8,-6.77,-7.53,-7.43,0,*51
1513864953.62,31137,6.69,73566.8,-6.77,-7.57,-7.53,0,*55
1513864954.87,31138,6.69,73566.5,-6.77,-7.57,-7.43,0,*5B
1513864956.13,31139,6.69,73560.0,-6.77,-7.57,-7.43,0,*5A
1513864957.41,31140,6.69,73560.8,-6.75,-7.69,-7.57,0,*5E
1513864958.63,31141,6.69,73556.8,-6.75,-7.53,-7.53,0,*52
1513864959.91,31142,6.69,73558.0,-6.75,-7.61,-7.61,0,*51
1513864961.13,31143,6.69,73566.5,-6.77,-7.53,-7.57,0,*56
1513864962.39,31144,6.69,73562.0,-6.77,-7.57,-7.57,0,*55
1513864963.61,31145,6.69,73554.8,-6.77,-7.61,-7.53,0,*55
1513864964.84,31146,6.69,73556.5,-6.77,-7.57,-7.53,0,*53
1513864966.11,31147,6.69,73556.0,-6.75,-7.69,-7.57,0,*59
1513864967.39,31148,6.69,73564.0,-6.75,-7.69,-7.57,0,*56
1513864968.64,31149,6.69,73556.5,-6.77,-7.61,-7.57,0,*5D
1513864969.89,31150,6.69,73552.3,-6.75,-7.57,-7.53,0,*56
1513864971.18,31151,6.69,73556.3,-6.75,-7.57,-7.43,0,*56
1513864972.43,31152,6.69,73558.0,-6.77,-7.61,-7.57,0,*57
1513864973.69,31153,6.63,73558.5,-6.77,-7.57,-7.43,0,*56
1513864974.94,31154,6.69,73562.5,-6.75,-7.57,-7.53,0,*52
1513864976.17,31155,6.63,73560.8,-6.77,-7.57,-7.53,0,*51
1513864977.42,31156,6.69,73562.3,-6.75,-7.57,-7.53,0,*50
1513864978.64,31157,6.69,73562.8,-6.75,-7.53,-7.53,0,*55
1513864979.9,31158,6.69,73564.5,-6.77,-7.57,-7.43,0,*5D
1513864981.12,31159,6.69,73566.5,-6.77,-7.53,-7.39,0,*55
1513864982.37,31160,6.69,73558.8,-6.77,-7.39,-7.27,0,*5C
1513864983.62,31161,6.69,73562.0,-6.77,-7.57,-7.43,0,*57
1513864984.9,31162,6.69,73560.8,-6.75,-7.61,-7.57,0,*56
1513864986.13,31163,6.69,73562.8,-6.77,-7.61,-7.53,0,*51
1513864987.38,31164,6.63,73560.5,-6.77,-7.61,-7.57,0,*52
1513864988.63,31165,6.63,73562.8,-6.75,-7.53,-7.43,0,*55
1513864989.88,31166,6.69,73560.0,-6.75,-7.57,-7.53,0,*53
1513864991.14,31167,6.63,73560.8,-6.77,-7.61,-7.57,0,*51
1513864992.39,31168,6.69,73570.5,-6.77,-7.61,-7.43,0,*5B
1513864993.64,31169,6.69,73564.0,-6.77,-7.39,-7.31,0,*52
1513864994.86,31170,6.69,73568.8,-6.77,-7.57,-7.53,0,*56
1513864996.11,31171,6.69,73570.3,-6.77,-7.61,-7.57,0,*56
1513864997.36,31172,6.69,73572.0,-6.75,-7.61,-7.53,0,*53
1513864998.62,31173,6.69,73568.8,-6.77,-7.57,-7.43,0,*54
1513864999.84,31174,6.69,73564.8,-6.77,-7.53,-7.31,0,*52
1513865001.1,31175,6.69,73566.5,-6.77,-7.57,-7.43,0,*52
1513865002.38,31176,6.69,73564.0,-6.75,-7.57,-7.39,0,*5E
1513865003.67,31177,6.69,73564.3,-6.75,-7.57,-7.43,0,*52
1513865004.95,31178,6.69,73572.5,-6.75,-7.57,-7.43,0,*5D
1513865006.18,31179,6.63,73566.5,-6.77,-7.57,-7.53,0,*5F
1513865007.47,31180,6.69,73570.5,-6.75,-7.57,-7.43,0,*5A
1513865008.69,31181,6.69,73570.3,-6.75,-7.53,-7.53,0,*5E
1513865009.91,31182,6.69,73566.8,-6.75,-7.53,-7.53,0,*5D
1513865011.16,31183,6.69,73564.8,-6.77,-7.57,-7.43,0,*5B
1513865012.42,31184,6.69,73566.3,-6.77,-7.57,-7.43,0,*5C
1513865013.65,31185,6.69,73562.0,-6.77,-7.53,-7.43,0,*59
1513865014.91,31186,6.69,73562.3,-6.75,-7.53,-7.43,0,*58
1513865016.19,31187,6.63,73560.8,-6.75,-7.57,-7.57,0,*58
1513865017.44,31188,6.69,73566.5,-6.77,-7.61,-7.57,0,*50
1513865018.72,31189,6.69,73568.8,-6.75,-7.61,-7.57,0,*53
1513865019.97,31190,6.69,73564.5,-6.77,-7.61,-7.57,0,*59
1513865021.23,31191,6.69,73568.3,-6.77,-7.61,-7.57,0,*58
1513865022.48,31192,6.69,73566.0,-6.75,-7.61,-7.53,0,*5D
1513865023.73,31193,6.69,73566.0,-6.77,-7.57,-7.57,0,*5F
1513865025.02,31194,6.69,73564.0,-6.75,-7.57,-7.57,0,*5A
1513865026.27,31195,6.69,73564.3,-6.77,-7.61,-7.57,0,*5C
1513865027.52,31196,6.69,73564.3,-6.77,-7.69,-7.57,0,*57
1513865028.77,31197,6.69,73566.5,-6.77,-7.69,-7.61,0,*53
1513865030.02,31198,6.63,73562.3,-6.77,-7.61,-7.57,0,*51
1513865031.27,31199,6.69,73558.0,-6.77,-7.69,-7.57,0,*58
1513865032.52,31200,6.69,73560.5,-6.77,-7.61,-7.57,0,*53
1513865033.8,31201,6.69,73566.8,-6.75,-7.61,-7.57,0,*50
1513865035.05,31202,6.63,73558.3,-6.75,-7.57,-7.53,0,*52
1513865036.31,31203,6.69,73562.5,-6.75,-7.57,-7.53,0,*53
1513865037.56,31204,6.69,73566.0,-6.77,-7.61,-7.57,0,*57
1513865038.81,31205,6.69,73566.8,-6.75,-7.57,-7.53,0,*55
1513865040.07,31206,6.69,73568.0,-6.77,-7.57,-7.57,0,*50
1513865041.29,31207,6.63,73566.0,-6.77,-7.57,-7.53,0,*55
1513865042.58,31208,6.69,73570.5,-6.75,-7.57,-7.43,0,*59
1513865043.8,31209,6.63,73566.3,-6.77,-7.57,-7.53,0,*5B
1513865045.08,31210,6.69,73570.8,-6.75,-7.61,-7.57,0,*50
1513865046.33,31211,6.69,73572.8,-6.77,-7.69,-7.61,0,*5E
1513865047.58,31212,6.69,73570.8,-6.75,-7.61,-7.53,0,*56
1513865048.83,31213,6.69,73564.5,-6.77,-7.61,-7.57,0,*51
1513865050.08,31214,6.69,73568.0,-6.75,-7.61,-7.53,0,*50
1513865051.33,31215,6.69,73568.3,-6.77,-7.61,-7.57,0,*57
1513865052.56,31216,6.69,73572.0,-6.77,-7.57,-7.53,0,*55
1513865053.81,31217,6.69,73568.5,-6.77,-7.61,-7.57,0,*55
1513865055.09,31218,6.69,73568.5,-6.75,-7.61,-7.57,0,*58
1513865056.31,31219,6.69,73566.0,-6.77,-7.61,-7.53,0,*5F
1513865057.57,31220,6.69,73562.3,-6.77,-7.61,-7.57,0,*51
1513865058.82,31221,6.69,73562.0,-6.77,-7.57,-7.43,0,*50
1513865060.11,31222,6.63,73560.0,-6.75,-7.57,-7.43,0,*51
1513865061.4,31223,6.69,73564.0,-6.75,-7.57,-7.43,0,*50
1513865062.65,31224,6.63,73556.3,-6.77,-7.57,-7.43,0,*55
1513865063.91,31225,6.69,73566.5,-6.75,-7.57,-7.53,0,*57
1513865065.13,31226,6.69,73564.3,-6.77,-7.57,-7.53,0,*56
1513865066.36,31227,6.69,73568.5,-6.77,-7.53,-7.43,0,*52
1513865067.61,31228,6.69,73566.3,-6.77,-7.57,-7.57,0,*5C
1513865068.87,31229,6.69,73564.0,-6.77,-7.57,-7.43,0,*58
1513865070.13,31230,6.69,73566.0,-6.77,-7.57,-7.57,0,*55
1513865071.38,31231,6.69,73566.8,-6.77,-7.57,-7.57,0,*54
1513865072.64,31232,6.69,73566.5,-6.77,-7.57,-7.57,0,*57
1513865073.86,31233,6.69,73566.3,-6.77,-7.61,-7.53,0,*57
1513865075.08,31234,6.69,73560.3,-6.77,-7.61,-7.53,0,*50
1513865076.28,31235,6.69,73562.5,-6.77,-7.53,-7.53,0,*50
1513865077.53,31236,6.69,73562.5,-6.75,-7.57,-7.53,0,*55
1513865078.75,31237,6.69,73568.0,-6.77,-7.57,-7.53,0,*56
1513865079.97,31238,6.69,73566.8,-6.77,-7.53,-7.39,0,*51
1513865081.2,31239,6.69,73562.8,-6.77,-7.61,-7.53,0,*5D
1513865082.48,31240,6.69,73566.5,-6.75,-7.57,-7.43,0,*55
1513865083.77,31241,6.69,73562.8,-6.75,-7.57,-7.43,0,*54
1513865085.05,31242,6.69,73570.3,-6.75,-7.57,-7.57,0,*52
1513865086.28,31243,6.69,73564.3,-6.77,-7.57,-7.53,0,*55
1513865087.53,31244,6.69,73568.8,-6.77,-7.61,-7.57,0,*53
1513865088.78,31245,6.69,73568.8,-6.77,-7.61,-7.57,0,*52
1513865090.03,31246,6.63,73564.5,-6.77,-7.61,-7.57,0,*51
1513865091.29,31247,6.69,73568.5,-6.77,-7.61,-7.57,0,*50
1513865092.56,31248,6.69,73566.3,-6.79,-7.61,-7.57,0,*51
1513865093.76,31249,6.69,73568.5,-6.77,-7.53,-7.53,0,*5B
1513865094.98,31250,6.69,73564.0,-6.77,-7.53,-7.39,0,*5F
1513865096.23,31251,6.69,73562.3,-6.77,-7.43,-7.39,0,*5F
1513865097.48,31252,6.69,73562.8,-6.77,-7.57,-7.39,0,*59
1513865098.73,31253,6.69,73564.0,-6.77,-7.39,-7.31,0,*58
1513865099.98,31254,6.69,73566.5,-6.77,-7.43,-7.39,0,*5A
1513865101.2,31255,6.69,73568.8,-6.77,-7.53,-7.39,0,*5A
1513865102.42,31256,6.69,73566.3,-6.77,-7.53,-7.39,0,*59
1513865103.67,31257,6.69,73556.5,-6.77,-7.43,-7.39,0,*59
1513865104.95,31258,6.63,73562.0,-6.75,-7.43,-7.39,0,*54
1513865106.23,31259,6.69,73570.5,-6.75,-7.43,-7.43,0,*58
1513865107.5,31260,6.69,73574.3,-6.75,-7.39,-7.31,0,*5A
1513865108.78,31261,6.69,73570.5,-6.75,-7.39,-7.31,0,*5B
1513865110.05,31262,6.69,73568.8,-6.75,-7.39,-7.39,0,*50
1513865111.33,31263,6.69,73566.3,-6.75,-7.43,-7.43,0,*51
1513865112.58,31264,6.69,73566.5,-6.73,-7.35,-7.39,0,*5C
1513865113.81,31265,6.69,73572.0,-6.77,-7.53,-7.43,0,*54
1513865115.06,31266,6.69,73568.0,-6.75,-7.31,-7.19,0,*5E
1513865116.33,31267,6.69,73566.8,-6.75,-7.31,-7.27,0,*52
1513865117.61,31268,6.69,73568.5,-6.75,-7.31,-7.31,0,*5A
1513865118.88,31269,6.69,73570.3,-6.75,-7.27,-7.31,0,*5C
1513865120.16,31270,6.69,73568.3,-6.75,-7.43,-7.31,0,*56
1513865121.43,31271,6.69,73568.0,-6.75,-7.31,-7.31,0,*52
1513865122.71,31272,6.69,73566.0,-6.75,-7.31,-7.27,0,*56
1513865123.95,31273,6.69,73564.5,-6.73,-7.39,-7.39,0,*56
1513865125.2,31274,6.69,73562.5,-6.69,-7.35,-7.35,0,*5A
1513865126.45,31275,6.69,73560.8,-6.73,-7.39,-7.39,0,*50
1513865127.7,31276,6.69,73568.3,-6.73,-7.39,-7.35,0,*5F
1513865128.9,31277,6.69,73570.8,-6.73,-7.23,-7.15,0,*57
1513865130.13,31278,6.69,73566.3,-6.73,-7.35,-7.23,0,*5A
1513865131.38,31279,6.69,73568.5,-6.73,-7.39,-7.39,0,*5C
1513865132.63,31280,6.69,73570.5,-6.73,-7.35,-7.35,0,*5A
1513865133.88,31281,6.69,73572.0,-6.69,-7.35,-7.27,0,*53
1513865135.09,31282,6.69,73574.8,-6.69,-7.23,-7.23,0,*53
1513865136.29,31283,6.63,73570.3,-6.73,-7.23,-7.23,0,*59
1513865137.51,31284,6.69,73574.3,-6.73,-7.11,-7.11,0,*5E
1513865138.71,31285,6.69,73568.8,-6.69,-7.11,-7.11,0,*54
1513865139.96,31286,6.69,73558.3,-6.69,-7.01,-7.01,0,*57
1513865141.17,31287,6.63,73558.5,-6.69,-7.11,-7.23,0,*57
1513865142.42,31288,6.69,73566.5,-6.69,-7.27,-7.27,0,*59
1513865143.69,31289,6.69,73576.0,-6.67,-7.35,-7.35,0,*56
1513865144.92,31290,6.69,73576.5,-6.69,-7.49,-7.35,0,*5B
1513865146.17,31291,6.69,73576.3,-6.67,-7.35,-7.23,0,*58
1513865147.45,31292,6.69,73572.8,-6.67,-7.35,-7.35,0,*5C
1513865148.73,31293,6.69,73572.8,-6.67,-7.43,-7.43,0,*5D
1513865150.0,31294,6.69,73574.0,-6.67,-7.31,-7.31,0,*5A
1513865151.25,31295,6.63,73568.8,-6.65,-7.31,-7.31,0,*59
1513865152.52,31296,6.69,73572.3,-6.67,-7.35,-7.35,0,*58
1513865153.78,31297,6.69,73570.8,-6.65,-7.35,-7.43,0,*5A
1513865155.0,31298,6.69,73578.5,-6.67,-7.49,-7.49,0,*56
1513865156.28,31299,6.69,73576.8,-6.67,-7.43,-7.43,0,*57
1513865157.5,31300,6.63,73572.5,-6.65,-7.49,-7.43,0,*5E
1513865158.73,31301,6.69,73570.5,-6.67,-7.49,-7.49,0,*57
1513865160.01,31302,6.69,73566.0,-6.67,-7.43,-7.43,0,*54
1513865161.23,31303,6.69,73572.0,-6.67,-7.49,-7.49,0,*55
1513865162.48,31304,6.69,73572.8,-6.67,-7.43,-7.49,0,*58
1513865163.7,31305,6.69,73570.8,-6.67,-7.49,-7.49,0,*53
1513865164.95,31306,6.69,73572.3,-6.67,-7.43,-7.49,0,*5A
1513865166.2,31307,6.69,73568.5,-6.65,-7.43,-7.43,0,*53
1513865167.49,31308,6.69,73572.3,-6.67,-7.43,-7.43,0,*5E
1513865168.77,31309,6.69,73574.0,-6.67,-7.43,-7.43,0,*5F
1513865170.02,31310,6.69,73570.8,-6.65,-7.43,-7.43,0,*55
1513865171.3,31311,6.69,73572.0,-6.67,-7.43,-7.43,0,*56
1513865172.52,31312,6.69,73570.8,-6.67,-7.49,-7.49,0,*55
1513865173.74,31313,6.63,73562.0,-6.67,-7.49,-7.49,0,*54
1513865174.97,31314,6.69,73570.8,-6.67,-7.49,-7.49,0,*53
1513865176.19,31315,6.69,73570.0,-6.65,-7.61,-7.53,0,*51
1513865177.44,31316,6.69,73574.8,-6.67,-7.53,-7.43,0,*50
1513865178.72,31317,6.69,73572.8,-6.67,-7.35,-7.35,0,*50
1513865179.94,31318,6.69,73578.5,-6.67,-7.49,-7.49,0,*5F
1513865181.16,31319,6.69,73576.5,-6.67,-7.49,-7.49,0,*5E
1513865182.36,31320,6.69,73572.0,-6.65,-7.49,-7.49,0,*56
1513865183.58,31321,6.69,73576.3,-6.67,-7.49,-7.49,0,*55
1513865184.8,31322,6.69,73578.0,-6.67,-7.49,-7.49,0,*56
1513865185.99,31323,6.69,73576.8,-6.65,-7.53,-7.49,0,*5E
1513865187.22,31324,6.69,73574.8,-6.67,-7.53,-7.49,0,*5B
1513865188.44,31325,6.69,73572.3,-6.67,-7.53,-7.53,0,*51
1513865189.64,31326,6.69,73566.8,-6.65,-7.53,-7.49,0,*5B
1513865190.92,31327,6.69,73566.5,-6.67,-7.61,-7.61,0,*53
1513865192.11,31328,6.69,73564.8,-6.65,-7.53,-7.53,0,*5E
1513865193.3,31329,6.69,73558.0,-6.65,-7.53,-7.53,0,*5F
1513865194.56,31330,6.69,73558.3,-6.65,-7.43,-7.43,0,*57
1513865195.75,31331,6.69,73564.5,-6.65,-7.49,-7.49,0,*56
1513865196.97,31332,6.69,73566.8,-6.67,-7.53,-7.53,0,*57
1513865198.19,31333,6.69,73570.5,-6.67,-7.53,-7.53,0,*56
1513865199.41,31334,6.69,73572.8,-6.67,-7.53,-7.53,0,*51
1513865200.63,31335,6.69,73570.5,-6.67,-7.53,-7.53,0,*50
1513865201.83,31336,6.69,73564.3,-6.65,-7.53,-7.49,0,*5A
1513865203.06,31337,6.69,73568.3,-6.65,-7.49,-7.43,0,*5A
1513865204.25,31338,6.69,73566.8,-6.65,-7.49,-7.49,0,*5F
1513865205.47,31339,6.69,73564.0,-6.67,-7.53,-7.49,0,*57
1513865206.69,31340,6.63,73564.3,-6.67,-7.53,-7.53,0,*52
1513865207.92,31341,6.69,73572.3,-6.67,-7.49,-7.49,0,*53
1513865209.14,31342,6.69,73568.8,-6.67,-7.49,-7.49,0,*50
1513865210.39,31343,6.69,73568.3,-6.67,-7.43,-7.49,0,*5B
1513865211.61,31344,6.69,73564.0,-6.67,-7.49,-7.49,0,*56
1513865212.83,31345,6.69,73564.3,-6.67,-7.49,-7.49,0,*57
1513865214.05,31346,6.69,73562.8,-6.65,-7.43,-7.49,0,*5C
1513865215.31,31347,6.69,73574.8,-6.65,-7.43,-7.43,0,*57
1513865216.56,31348,6.69,73572.0,-6.65,-7.43,-7.43,0,*58
1513865217.76,31349,6.69,73568.0,-6.65,-7.49,-7.49,0,*59
1513865218.98,31350,6.69,73564.0,-6.65,-7.43,-7.49,0,*5B
1513865220.17,31351,6.69,73574.3,-6.65,-7.49,-7.49,0,*50
1513865221.37,31352,6.69,73572.0,-6.65,-7.49,-7.49,0,*53
1513865222.62,31353,6.69,73566.5,-6.67,-7.49,-7.61,0,*5A
1513865223.81,31354,6.69,73560.5,-6.65,-7.49,-7.53,0,*5E
1513865225.03,31355,6.69,73568.0,-6.67,-7.49,-7.53,0,*5D
1513865226.26,31356,6.69,73568.8,-6.65,-7.49,-7.61,0,*5D
1513865227.45,31357,6.69,73574.0,-6.65,-7.49,-7.53,0,*5D
1513865228.64,31358,6.69,73574.0,-6.65,-7.53,-7.53,0,*59
1513865229.89,31359,6.69,73566.3,-6.65,-7.43,-7.43,0,*58
1513865231.14,31360,6.69,73558.5,-6.65,-7.35,-7.35,0,*52
1513865232.4,31361,6.69,73560.0,-6.65,-7.43,-7.43,0,*53
1513865233.59,31362,6.69,73560.0,-6.65,-7.49,-7.49,0,*50
1513865234.85,31363,6.69,73562.8,-6.65,-7.43,-7.43,0,*51
1513865236.07,31364,6.69,73562.5,-6.65,-7.49,-7.43,0,*5C
1513865237.32,31365,6.63,73562.0,-6.65,-7.35,-7.35,0,*57
1513865238.55,31366,6.69,73564.3,-6.65,-7.49,-7.43,0,*5E
1513865239.74,31367,6.69,73570.0,-6.65,-7.49,-7.49,0,*55
1513865241.02,31368,6.69,73570.3,-6.67,-7.43,-7.43,0,*58
1513865242.22,31369,6.69,73570.3,-6.65,-7.49,-7.49,0,*5B
1513865243.49,31370,6.69,73578.0,-6.63,-7.39,-7.43,0,*58
1513865244.75,31371,6.69,73576.8,-6.63,-7.39,-7.39,0,*54
1513865245.98,31372,6.69,73568.8,-6.65,-7.43,-7.49,0,*5B
1513865247.17,31373,6.69,73566.0,-6.65,-7.49,-7.53,0,*5B
1513865248.36,31374,6.69,73552.5,-6.65,-7.49,-7.53,0,*5C
1513865249.61,31375,6.69,73558.5,-6.63,-7.43,-7.49,0,*5A
1513865250.86,31376,6.69,73564.0,-6.63,-7.43,-7.49,0,*59
1513865252.1,31377,6.69,73556.8,-6.63,-7.43,-7.49,0,*58
1513865253.35,31378,6.69,73562.5,-6.61,-7.57,-7.57,0,*5F
1513865254.61,31379,6.69,73568.3,-6.61,-7.57,-7.57,0,*5E
1513865255.85,31380,6.69,73582.0,-6.63,-7.49,-7.57,0,*55
1513865257.12,31381,6.69,73570.8,-6.63,-7.39,-7.39,0,*5B
1513865258.34,31382,6.69,73566.0,-6.65,-7.43,-7.49,0,*54
1513865259.58,31383,6.69,73566.3,-6.61,-7.31,-7.39,0,*53
1513865260.85,31384,6.69,73566.8,-6.63,-7.39,-7.39,0,*5E
1513865262.12,31385,6.69,73570.8,-6.63,-7.39,-7.43,0,*52
1513865263.39,31386,6.69,73564.3,-6.63,-7.39,-7.39,0,*5C
1513865264.65,31387,6.69,73566.3,-6.63,-7.39,-7.39,0,*5D
1513865265.9,31388,6.69,73564.8,-6.61,-7.39,-7.43,0,*5D
1513865267.15,31389,6.69,73572.3,-6.61,-7.43,-7.43,0,*51
1513865268.4,31390,6.69,73566.5,-6.61,-7.43,-7.43,0,*59
1513865269.62,31391,6.63,73570.8,-6.61,-7.43,-7.49,0,*52
1513865270.86,31392,6.69,73568.3,-6.61,-7.27,-7.39,0,*54
1513865272.11,31393,6.63,73554.8,-6.61,-7.27,-7.31,0,*5D
1513865273.36,31394,6.69,73552.8,-6.63,-7.19,-7.31,0,*55
1513865274.63,31395,6.69,73554.8,-6.63,-7.39,-7.43,0,*53
1513865275.88,31396,6.69,73560.0,-6.61,-7.43,-7.43,0,*5F
1513865277.13,31397,6.69,73560.3,-6.61,-7.39,-7.43,0,*53
1513865278.4,31398,6.69,73558.5,-6.63,-7.39,-7.43,0,*5E
1513865279.67,31399,6.69,73552.8,-6.63,-7.27,-7.39,0,*5D
1513865280.91,31400,6.69,73554.5,-6.61,-7.31,-7.31,0,*57
1513865282.15,31401,6.69,73548.8,-6.61,-7.27,-7.39,0,*59
1513865283.4,31402,6.69,73554.3,-6.61,-7.27,-7.43,0,*57
1513865284.64,31403,6.69,73552.3,-6.61,-7.31,-7.39,0,*5C
1513865285.89,31404,6.69,73558.0,-6.61,-7.27,-7.43,0,*51
1513865287.13,31405,6.69,73552.3,-6.61,-7.31,-7.39,0,*5A
1513865288.36,31406,6.69,73550.8,-6.59,-7.23,-7.35,0,*5D
1513865289.64,31407,6.69,73556.0,-6.57,-7.27,-7.35,0,*56
1513865290.88,31408,6.69,73548.5,-6.59,-7.39,-7.39,0,*54
1513865292.1,31409,6.69,73542.3,-6.59,-7.39,-7.53,0,*59
1513865293.35,31410,6.69,73552.0,-6.59,-7.43,-7.43,0,*5D
1513865294.61,31411,6.69,73550.0,-6.59,-7.43,-7.43,0,*5C
1513865295.87,31412,6.69,73552.8,-6.59,-7.43,-7.43,0,*5F
1513865297.12,31413,6.69,73556.0,-6.59,-7.39,-7.43,0,*53
1513865298.37,31414,6.69,73550.5,-6.59,-7.39,-7.43,0,*54
1513865299.62,31415,6.69,73556.8,-6.59,-7.43,-7.43,0,*58
1513865300.88,31416,6.69,73556.5,-6.59,-7.43,-7.39,0,*56
1513865302.13,31417,6.69,73566.8,-6.59,-7.43,-7.39,0,*57
1513865303.38,31418,6.69,73564.5,-6.59,-7.43,-7.39,0,*58
1513865304.65,31419,6.69,73562.0,-6.57,-7.39,-7.39,0,*5A
1513865305.9,31420,6.69,73570.3,-6.59,-7.39,-7.39,0,*5E
1513865307.17,31421,6.69,73568.8,-6.57,-7.39,-7.43,0,*5C
1513865308.45,31422,6.69,73562.3,-6.57,-7.43,-7.39,0,*5F
1513865309.73,31423,6.69,73564.8,-6.57,-7.43,-7.39,0,*5E
1513865311.0,31424,6.69,73570.8,-6.57,-7.39,-7.39,0,*54
1513865312.27,31425,6.69,73558.5,-6.57,-7.39,-7.43,0,*58
1513865313.55,31426,6.69,73554.3,-6.57,-7.39,-7.43,0,*5B
1513865314.82,31427,6.69,73564.3,-6.57,-7.39,-7.43,0,*5A
1513865316.1,31428,6.69,73570.0,-6.57,-7.39,-7.43,0,*55
1513865317.34,31429,6.69,73566.8,-6.57,-7.39,-7.53,0,*55
1513865318.62,31430,6.69,73572.5,-6.57,-7.39,-7.43,0,*5C
1513865319.9,31431,6.69,73574.8,-6.57,-7.43,-7.43,0,*50
1513865321.15,31432,6.69,73562.5,-6.59,-7.43,-7.43,0,*5D
1513865322.44,31433,6.69,73566.0,-6.57,-7.43,-7.43,0,*52
1513865323.72,31434,6.69,73566.8,-6.57,-7.43,-7.43,0,*55